Louisville, KY

12:43 AM EDT on June 27, 2017 (GMT -0400)
Louisville International-Standiford

Weather History for KSDF - August, 2013

Change the Weather History Date:

Sunday, August 18, 2013

  Actual Average Record
Temperature  
Mean Temperature 75 °F 79 °F  
Max Temperature 85 °F 89 °F 99 °F (1988)
Min Temperature 64 °F 69 °F 55 °F (1962)
Degree Days  
Heating Degree Days 0 0  
Month to date heating degree days 0 0  
Since 1 June heating degree days 0 5  
Since 1 July heating degree days 0 0  
Cooling Degree Days 10 14  
Month to date cooling degree days 192 252  
Year to date cooling degree days 1129 1193  
Since 1 June cooling degree days 901 1019  
Growing Degree Days 24 (Base 50)    
Moisture  
Dew Point 62 °F    
Average Humidity 62    
Maximum Humidity 87    
Minimum Humidity 37    
Precipitation  
Precipitation 0.00 in 0.12 in 1.77 in (1888)
Month to date precipitation 2.19 2.09  
Year to date precipitation 30.80 29.98  
Snow  
Snow 0.00 in 0.00 in - ()
Month to date snowfall 0.0 0.0  
Since 1 June snowfall 0.0 0.0  
Since 1 July snowfall 0.0 0.0  
Snow Depth 0.00 in    
Sea Level Pressure  
Sea Level Pressure 30.11 in    
Wind  
Wind Speed 3 mph (East)    
Max Wind Speed 14 mph    
Max Gust Speed 17 mph    
Visibility 10 miles    
Events      
T = Trace of Precipitation, MM = Missing Value Source: NWS Daily Summary

Daily Weather History Graph

Daily Weather History Graph

Search for Another Location

Airport or City:

Trip Planner

Search our weather history database for the weather conditions in past years. The results will help you decide how hot, cold, wet, or windy it might be!

Date:

Astronomy

Aug. 18, 2013 Rise Set
Actual Time 7:00 AM EDT 8:32 PM EDT
Civil Twilight 6:32 AM EDT 8:59 PM EDT
Nautical Twilight 5:59 AM EDT 9:33 PM EDT
Astronomical Twilight 5:23 AM EDT 10:08 PM EDT
Moon 6:36 PM EDT (8/18) 4:10 AM EDT (8/18)
Length of Visible Light 14h 27m
Length of Day
13h 31m
Waxing Gibbous, 92% of the Moon is Illuminated
Aug 18
Waxing Gibbous
Aug 20
Full
Aug 28
Last Quarter
Sep 5
New
Sep 12
First Quarter

Hourly Weather History & Observations

Time (EDT) Temp. Heat Index Dew Point Humidity Pressure Visibility Wind Dir Wind Speed Gust Speed Precip Events Conditions
12:56 AM 71.1 °F - 61.0 °F 70% 30.12 in 10.0 mi East 5.8 mph - N/A   Scattered Clouds
1:56 AM 69.1 °F - 61.0 °F 75% 30.11 in 10.0 mi East 5.8 mph - N/A   Scattered Clouds
2:56 AM 68.0 °F - 61.0 °F 78% 30.09 in 10.0 mi Calm Calm - N/A   Partly Cloudy
3:56 AM 66.9 °F - 61.0 °F 81% 30.09 in 10.0 mi Calm Calm - N/A   Partly Cloudy
4:56 AM 66.9 °F - 61.0 °F 81% 30.09 in 10.0 mi Calm Calm - N/A   Scattered Clouds
5:56 AM 64.9 °F - 60.1 °F 84% 30.10 in 10.0 mi North 3.5 mph - N/A   Partly Cloudy
6:56 AM 64.9 °F - 61.0 °F 87% 30.12 in 10.0 mi Calm Calm - N/A   Scattered Clouds
7:56 AM 66.0 °F - 61.0 °F 84% 30.14 in 9.0 mi East 3.5 mph - N/A   Partly Cloudy
8:56 AM 69.1 °F - 62.1 °F 78% 30.16 in 9.0 mi Calm Calm - N/A   Partly Cloudy
9:56 AM 72.0 °F - 62.1 °F 71% 30.17 in 10.0 mi Calm Calm - N/A   Scattered Clouds
10:56 AM 75.9 °F - 64.0 °F 67% 30.17 in 10.0 mi Calm Calm - N/A   Scattered Clouds
11:56 AM 78.1 °F - 63.0 °F 60% 30.15 in 10.0 mi Calm Calm - N/A   Scattered Clouds
12:56 PM 81.0 °F 81.7 °F 61.0 °F 50% 30.14 in 10.0 mi NNE 5.8 mph - N/A   Scattered Clouds
1:56 PM 82.0 °F 82.4 °F 60.1 °F 47% 30.13 in 10.0 mi East 4.6 mph - N/A   Scattered Clouds
2:56 PM 82.0 °F 82.0 °F 57.9 °F 44% 30.12 in 10.0 mi Variable 3.5 mph - N/A   Scattered Clouds
3:56 PM 84.9 °F 83.7 °F 55.9 °F 37% 30.09 in 10.0 mi Calm Calm - N/A   Scattered Clouds
4:56 PM 82.9 °F 82.4 °F 57.0 °F 41% 30.08 in 10.0 mi Variable 3.5 mph - N/A   Scattered Clouds
5:56 PM 84.0 °F 83.8 °F 59.0 °F 43% 30.08 in 10.0 mi NNE 4.6 mph - N/A   Mostly Cloudy
6:56 PM 82.9 °F 82.8 °F 59.0 °F 44% 30.08 in 10.0 mi Calm Calm - N/A   Mostly Cloudy
7:56 PM 78.1 °F - 64.9 °F 64% 30.08 in 10.0 mi SSE 13.8 mph - N/A   Scattered Clouds
8:56 PM 75.9 °F - 66.0 °F 71% 30.09 in 10.0 mi South 8.1 mph - N/A   Scattered Clouds
9:56 PM 75.0 °F - 66.0 °F 73% 30.11 in 10.0 mi ESE 3.5 mph - N/A   Scattered Clouds
10:56 PM 73.0 °F - 68.0 °F 84% 30.12 in 10.0 mi Calm Calm - N/A   Scattered Clouds
11:56 PM 72.0 °F - 66.9 °F 84% 30.12 in 10.0 mi SE 4.6 mph - N/A   Partly Cloudy